sat.trackr.live / text

‹ back to catalog

STARLINK-31564

NORAD 59526 · 2024-073R

PAYLOAD ACTIVE UNKNOWN

§ Identity

Operator
Country
US
Launch date
2024-04-17
Launch site
AFETR
Launch vehicle
Mass (kg)
RCS (m²)

Purposes: comms

External: N2YO · Heavens-Above · Gunter

§ Orbital elements

Epoch: 2026-05-24T18:20:39.302592Z

Period
94.27 min
Inclination
42.9996°
Eccentricity
0.0001667
Mean motion
15.27590430 rev/d
Perigee alt
481.9 km
Apogee alt
484.2 km
Semi-major
6,861.2 km
B*
2.8623e-4
RAAN
248.0988°
Arg perigee
278.0296°
Mean anomaly
82.0367°
Rev number
11,781

§ Raw data

STARLINK-315641 59526U 24073R   26144.76434378  .00007625  00000+0  28623-3 0  99952 59526  42.9996 248.0988 0001667 278.0296  82.0367 15.27590430117811

JSON: /api/v1/satellites/59526 · /tle

For live sub-satellite position, see the globe view (requires WebGL).

§ Visibility from observer

Set your observer location to see the next 7 days of passes ≥ 10°. The values pass through the URL so the page stays shareable.

No JS? Fill the form by hand. The geolocation button needs JavaScript.